| time (UTC) | temp F | wind direction | speed knots | gust knots | rain 1hr in | rain 24hr in | rain mn in | humidity % | barometer mb |
| 20260504222734 | 0 | 180 | 0.0 | 1.7 | 0.00 | 0.00 | 0.00 | 1010.3 | |
| 20260504221931 | 0 | 90 | 1.7 | 1.7 | 0.00 | 0.00 | 0.00 | 1010.4 | |
| 20260504221125 | 0 | 90 | 0.0 | 0.9 | 0.00 | 0.00 | 0.00 | 1010.5 | |
| 20260504220323 | 0 | 0 | 0.0 | 0.9 | 0.00 | 0.00 | 0.00 | 1010.4 | |
| 20260504215517 | 0 | 90 | 0.0 | 0.9 | 0.00 | 0.00 | 0.00 | 1010.5 | |
| 20260504214713 | 0 | 90 | 0.0 | 1.7 | 0.00 | 0.00 | 0.00 | 1010.6 | |
| 20260504213910 | 0 | 90 | 0.0 | 1.7 | 0.00 | 0.00 | 0.00 | 1010.7 | |
| 20260504213104 | 0 | 90 | 0.0 | 1.7 | 0.00 | 0.00 | 0.00 | 1010.8 | |
| 20260504212300 | 0 | 90 | 0.0 | 0.0 | 0.00 | 0.00 | 0.00 | 1010.9 | |
| 20260504211457 | 0 | 90 | 0.0 | 0.9 | 0.00 | 0.00 | 0.00 | 1010.9 | |
| 20260504210650 | 0 | 90 | 0.0 | 0.0 | 0.00 | 0.00 | 0.00 | 1010.8 | |
| 20260504205843 | 0 | 90 | 0.0 | 0.9 | 0.00 | 0.00 | 0.00 | 1010.8 | |
| 20260504205036 | 0 | 90 | 0.0 | 0.9 | 0.00 | 0.00 | 0.00 | 1010.8 | |
| 20260504204229 | 0 | 90 | 0.0 | 0.9 | 0.00 | 0.00 | 0.00 | 1010.8 | |
| 20260504203425 | 0 | 90 | 0.0 | 1.7 | 0.00 | 0.00 | 0.00 | 1010.7 | |
| 20260504202621 | 0 | 45 | 0.0 | 0.0 | 0.00 | 0.00 | 0.00 | 1010.6 | |
| 20260504201813 | 0 | 45 | 0.0 | 0.0 | 0.00 | 0.00 | 0.00 | 1010.5 | |
| 20260504201010 | 0 | 90 | 0.0 | 0.9 | 0.00 | 0.00 | 0.00 | 1010.6 | |
| 20260504200205 | 0 | 90 | 0.0 | 0.9 | 0.00 | 0.00 | 0.00 | 1010.5 | |
| 20260504195358 | 0 | 90 | 0.0 | 0.9 | 0.00 | 0.00 | 0.00 | 1010.5 | |
| 20260504194548 | 0 | 90 | 0.0 | 0.9 | 0.00 | 0.00 | 0.00 | 1010.5 | |
| 20260504193735 | 0 | 90 | 0.0 | 1.7 | 0.00 | 0.00 | 0.00 | 1010.5 | |
| 20260504192923 | 0 | 90 | 0.0 | 0.9 | 0.00 | 0.00 | 0.00 | 1010.4 | |
| 20260504192120 | 0 | 90 | 0.0 | 1.7 | 0.00 | 0.00 | 0.00 | 1010.3 | |
| 20260504191314 | 0 | 90 | 0.0 | 0.9 | 0.00 | 0.00 | 0.00 | 1010.2 | |
| 20260504190506 | 0 | 90 | 0.0 | 1.7 | 0.00 | 0.00 | 0.00 | 1010.1 | |
| 20260504185703 | 0 | 90 | 0.0 | 1.7 | 0.00 | 0.00 | 0.00 | 1009.9 | |
| 20260504184859 | 0 | 90 | 1.7 | 1.7 | 0.00 | 0.00 | 0.00 | 1009.9 | |
| 20260504184057 | 0 | 90 | 0.0 | 0.0 | 0.00 | 0.00 | 0.00 | 1009.7 | |
| 20260504183252 | 0 | 90 | 0.0 | 2.6 | 0.00 | 0.00 | 0.00 | 1009.6 | |
| 20260504182445 | 0 | 90 | 0.0 | 0.0 | 0.00 | 0.00 | 0.00 | 1009.4 | |
| 20260504181638 | 0 | 135 | 0.0 | 1.7 | 0.00 | 0.00 | 0.00 | 1009.2 | |
| 20260504180836 | 0 | 180 | 0.0 | 4.3 | 0.00 | 0.00 | 0.00 | 1009.1 | |
| 20260504180032 | 0 | 225 | 0.0 | 1.7 | 0.00 | 0.00 | 0.00 | 1008.9 | |
| 20260504175229 | 0 | 315 | 0.0 | 0.9 | 0.00 | 0.00 | 0.00 | 1008.8 | |
| 20260504174426 | 0 | 225 | 0.0 | 1.7 | 0.00 | 0.00 | 0.00 | 1008.7 | |
| 20260504173625 | 0 | 225 | 1.7 | 2.6 | 0.00 | 0.00 | 0.00 | 1008.7 | |
| 20260504172819 | 0 | 270 | 1.7 | 6.1 | 0.00 | 0.00 | 0.00 | 1008.5 | |
| 20260504172013 | 0 | 270 | 0.9 | 2.6 | 0.00 | 0.00 | 0.00 | 1008.5 | |
| 20260504171213 | 0 | 135 | 0.0 | 1.7 | 0.00 | 0.00 | 0.00 | 1008.5 | |
| 20260504170409 | 0 | 315 | 0.9 | 0.9 | 0.00 | 0.00 | 0.00 | 1008.4 | |
| 20260504151055 | 0 | 270 | 3.5 | 7.0 | 0.00 | 0.00 | 0.00 | 1007.9 | |
| 20260504150252 | 0 | 270 | 2.6 | 7.0 | 0.00 | 0.00 | 0.00 | 1008.1 | |
| 20260504140622 | 0 | 315 | 1.7 | 10.4 | 0.00 | 0.00 | 0.00 | 1008.4 | |
| 20260504130151 | 0 | 90 | 5.2 | 8.7 | 0.00 | 0.00 | 0.00 | 1009.1 | |
| 20260504100427 | 0 | 270 | 2.6 | 6.1 | 0.00 | 0.00 | 0.00 | 1011.3 | |
| 20260504081922 | 0 | 315 | 1.7 | 6.1 | 0.00 | 0.00 | 0.00 | 1012.0 | |
| 20260504081118 | 0 | 270 | 2.6 | 5.2 | 0.00 | 0.00 | 0.00 | 1011.8 | |
| 20260504080312 | 0 | 135 | 3.5 | 4.3 | 0.00 | 0.00 | 0.00 | 1011.5 | |
| 20260504060203 | 0 | 315 | 2.6 | 7.0 | 0.00 | 0.00 | 0.00 | 1012.7 | |
| 20260504045705 | 0 | 270 | 2.6 | 5.2 | 0.00 | 0.00 | 0.00 | 1012.9 | |
| 20260504044900 | 0 | 270 | 1.7 | 4.3 | 0.00 | 0.00 | 0.00 | 1012.9 | |
| 20260504044057 | 0 | 315 | 1.7 | 4.3 | 0.00 | 0.00 | 0.00 | 1012.9 | |
| 20260504043250 | 0 | 270 | 0.9 | 1.7 | 0.00 | 0.00 | 0.00 | 1013.2 | |
| 20260504042446 | 0 | 315 | 0.0 | 0.9 | 0.00 | 0.00 | 0.00 | 1013.1 | |
| 20260504041641 | 0 | 315 | 0.0 | 1.7 | 0.00 | 0.00 | 0.00 | 1013.1 | |
| 20260504040834 | 0 | 315 | 1.7 | 2.6 | 0.00 | 0.00 | 0.00 | 1013.1 | |
| 20260504040029 | 0 | 135 | 0.9 | 4.3 | 0.00 | 0.00 | 0.00 | 1013.0 | |
| 20260504035223 | 0 | 90 | 0.0 | 1.7 | 0.00 | 0.00 | 0.00 | 1013.2 | |
| 20260504034420 | 0 | 270 | 0.9 | 1.7 | 0.00 | 0.00 | 0.00 | 1013.2 | |
| 20260504033616 | 0 | 270 | 0.9 | 3.5 | 0.00 | 0.00 | 0.00 | 1013.2 | |
| 20260504032812 | 0 | 135 | 0.0 | 0.0 | 0.00 | 0.00 | 0.00 | 1013.7 | |
| 20260504032007 | 0 | 270 | 0.0 | 1.7 | 0.00 | 0.00 | 0.00 | 1013.7 | |
| 20260504031203 | 0 | 90 | 0.0 | 0.9 | 0.00 | 0.00 | 0.00 | 1013.8 | |
| 20260504030400 | 0 | 90 | 0.0 | 0.0 | 0.00 | 0.00 | 0.00 | 1013.8 | |
| 20260504025556 | 0 | 90 | 0.0 | 0.9 | 0.00 | 0.00 | 0.00 | 1013.8 | |
| 20260504024751 | 0 | 90 | 0.0 | 0.9 | 0.00 | 0.00 | 0.00 | 1013.8 | |
| 20260504023950 | 0 | 90 | 0.0 | 1.7 | 0.00 | 0.00 | 0.00 | 1013.7 | |
| 20260504023144 | 0 | 315 | 0.0 | 0.9 | 0.00 | 0.00 | 0.00 | 1013.8 | |
| 20260504022339 | 0 | 90 | 0.0 | 0.9 | 0.00 | 0.00 | 0.00 | 1013.8 | |
| 20260504021536 | 0 | 90 | 0.0 | 0.9 | 0.00 | 0.00 | 0.00 | 1013.9 | |
| 20260504020731 | 0 | 90 | 0.0 | 1.7 | 0.00 | 0.00 | 0.00 | 1013.8 | |
| 20260504015928 | 0 | 90 | 0.0 | 0.9 | 0.00 | 0.00 | 0.00 | 1013.7 | |
| 20260504015124 | 0 | 90 | 0.0 | 0.9 | 0.00 | 0.00 | 0.00 | 1013.5 | |
| 20260504014320 | 0 | 90 | 0.0 | 1.7 | 0.00 | 0.00 | 0.00 | 1013.5 | |
| 20260504013514 | 0 | 315 | 0.0 | 0.9 | 0.00 | 0.00 | 0.00 | 1013.3 | |
| 20260504012714 | 0 | 270 | 0.9 | 3.5 | 0.00 | 0.00 | 0.00 | 1013.0 | |
| 20260504011909 | 0 | 180 | 0.0 | 3.5 | 0.00 | 0.00 | 0.00 | 1013.1 | |
| 20260504011103 | 0 | 270 | 0.9 | 2.6 | 0.00 | 0.00 | 0.00 | 1013.0 | |
| 20260504010259 | 0 | 315 | 0.9 | 2.6 | 0.00 | 0.00 | 0.00 | 1013.1 | |
| 20260504005459 | 0 | 270 | 0.0 | 1.7 | 0.00 | 0.00 | 0.00 | 1012.9 | |
| 20260504004656 | 0 | 270 | 0.0 | 3.5 | 0.00 | 0.00 | 0.00 | 1013.0 | |
| 20260504003853 | 0 | 315 | 1.7 | 2.6 | 0.00 | 0.00 | 0.00 | 1013.0 | |
| 20260504003049 | 0 | 315 | 0.9 | 2.6 | 0.00 | 0.00 | 0.00 | 1012.9 | |
| 20260504002248 | 0 | 315 | 0.0 | 2.6 | 0.00 | 0.00 | 0.00 | 1012.9 | |
| 20260504001446 | 0 | 270 | 0.0 | 4.3 | 0.00 | 0.00 | 0.00 | 1012.9 | |
| 20260504000644 | 0 | 270 | 1.7 | 5.2 | 0.00 | 0.00 | 0.00 | 1012.8 | |
| 20260503235840 | 0 | 270 | 1.7 | 3.5 | 0.00 | 0.00 | 0.00 | 1012.9 | |
| 20260503235036 | 0 | 270 | 0.9 | 5.2 | 0.00 | 0.00 | 0.00 | 1013.0 | |
| 20260503234229 | 0 | 225 | 0.9 | 5.2 | 0.00 | 0.00 | 0.00 | 1013.0 | |
| 20260503233425 | 0 | 315 | 0.9 | 7.0 | 0.00 | 0.00 | 0.00 | 1013.0 | |
| 20260503232623 | 0 | 315 | 3.5 | 3.5 | 0.00 | 0.00 | 0.00 | 1013.1 | |
| 20260503231818 | 0 | 315 | 0.9 | 5.2 | 0.00 | 0.00 | 0.00 | 1013.1 | |
| 20260503231017 | 0 | 315 | 0.9 | 2.6 | 0.00 | 0.00 | 0.00 | 1013.2 | |
| 20260503230217 | 0 | 270 | 0.9 | 3.5 | 0.00 | 0.00 | 0.00 | 1013.2 | |
| 20260503225415 | 0 | 315 | 0.0 | 3.5 | 0.00 | 0.00 | 0.00 | 1013.1 | |
| 20260503224612 | 0 | 270 | 0.9 | 5.2 | 0.00 | 0.00 | 0.00 | 1013.2 | |
| 20260503223807 | 0 | 315 | 1.7 | 3.5 | 0.00 | 0.00 | 0.00 | 1013.3 |